Location: Cheching
(60.0667°N, 164.2167°W)
Time: 01:29:56
(UTC+00:00)

DX 1 - Pass Details

Date: 30 January 2021
Orbit: 618 x 631 km, 98.5° (Epoch: 07 March)

Event Time Altitude Azimuth Distance (km) Brightness Sun altitude
Rises 17:49:01 0° 203° (SSW) 2,906 ? -10.4°
Reaches altitude 10° 17:51:39 10° 220° (SW) 2,002 ? -10.0°
Maximum altitude 17:54:59 21° 270° (W) 1,406 ? -9.6°
Drops below altitude 10° 17:58:21 10° 320° (NW) 2,008 ? -9.2°
Enters shadow 17:59:50 - 331° (NNW) 2,496 ? -9.1°
